Change the Weather History Date:

Tuesday, May 14, 2013

  Actual Average Record
Temperature  
Mean Temperature 62 °F 72 °F  
Max Temperature 75 °F 83 °F 95 °F (1933)
Min Temperature 49 °F 61 °F 42 °F (1941)
Degree Days  
Heating Degree Days 3 0  
Month to date heating degree days 9 8  
Since 1 July heating degree days 1846 1971  
Cooling Degree Days 0 7  
Month to date cooling degree days 56 83  
Year to date cooling degree days 179 201  
Growing Degree Days 12 (Base 50)    
Moisture  
Dew Point 46 °F    
Average Humidity 59    
Maximum Humidity 83    
Minimum Humidity 35    
Precipitation  
Precipitation 0.00 in 0.09 in 2.45 in (1979)
Month to date precipitation 1.49 1.27  
Year to date precipitation 21.94 14.56  
Sea Level Pressure  
Sea Level Pressure 30.20 in    
Wind  
Wind Speed 7 mph (SSE)    
Max Wind Speed 18 mph    
Max Gust Speed 22 mph    
Visibility 10 miles    
Events      
T = Trace of Precipitation, MM = Missing Value Source: NWS Daily Summary

Daily Weather History Graph

Daily Weather History Graph

Search for Another Location

Airport or City:

Trip Planner

Search our weather history database for the weather conditions in past years. The results will help you decide how hot, cold, wet, or windy it might be!

Date:

Astronomy

May. 14, 2013 Rise Set
Actual Time 6:21 AM EDT 8:11 PM EDT
Civil Twilight 5:54 AM EDT 8:39 PM EDT
Nautical Twilight 5:21 AM EDT 9:11 PM EDT
Astronomical Twilight 4:46 AM EDT 9:46 PM EDT
Moon 9:59 AM EDT (5/14) No Moon Set
Length of Visible Light 14h 44m
Length of Day
13h 50m
Waxing Crescent, 19% of the Moon is Illuminated
May 14
Waxing Crescent
May 18
First Quarter
May 25
Full
May 31
Last Quarter
Jun 8
New

Hourly Weather History & Observations

Time (EDT) Temp. Dew Point Humidity Pressure Visibility Wind Dir Wind Speed Gust Speed Precip Events Conditions
12:56 AM 54.0 °F 45.0 °F 72% 30.16 in 10.0 mi Calm Calm - N/A   Clear
1:56 AM 53.1 °F 45.0 °F 74% 30.15 in 10.0 mi Calm Calm - N/A   Clear
2:56 AM 52.0 °F 46.0 °F 80% 30.15 in 10.0 mi WNW 4.6 mph - N/A   Clear
3:56 AM 54.0 °F 45.0 °F 72% 30.14 in 10.0 mi Calm Calm - N/A   Clear
4:56 AM 50.0 °F 43.0 °F 77% 30.15 in 10.0 mi Calm Calm - N/A   Clear
5:56 AM 50.0 °F 42.1 °F 74% 30.17 in 10.0 mi North 4.6 mph - N/A   Partly Cloudy
6:56 AM 50.0 °F 42.1 °F 74% 30.20 in 10.0 mi North 3.5 mph - N/A   Partly Cloudy
7:56 AM 55.9 °F 44.1 °F 64% 30.23 in 10.0 mi NE 6.9 mph - N/A   Partly Cloudy
8:56 AM 62.1 °F 46.9 °F 58% 30.25 in 10.0 mi ENE 6.9 mph - N/A   Clear
9:56 AM 66.9 °F 46.0 °F 47% 30.26 in 10.0 mi ENE 10.4 mph - N/A   Clear
10:56 AM 69.1 °F 43.0 °F 39% 30.27 in 10.0 mi NE 10.4 mph - N/A   Partly Cloudy
11:56 AM 71.1 °F 42.1 °F 35% 30.27 in 10.0 mi ESE 3.5 mph - N/A   Partly Cloudy
12:56 PM 72.0 °F 42.1 °F 34% 30.26 in 10.0 mi NE 6.9 mph - N/A   Partly Cloudy
1:56 PM 73.0 °F 44.1 °F 35% 30.24 in 10.0 mi South 9.2 mph - N/A   Partly Cloudy
2:56 PM 73.9 °F 45.0 °F 35% 30.22 in 10.0 mi SSE 9.2 mph - N/A   Partly Cloudy
3:56 PM 73.9 °F 46.9 °F 38% 30.19 in 10.0 mi South 13.8 mph - N/A   Partly Cloudy
4:56 PM 73.0 °F 46.9 °F 39% 30.19 in 10.0 mi South 11.5 mph - N/A   Partly Cloudy
5:56 PM 72.0 °F 48.0 °F 43% 30.19 in 10.0 mi South 9.2 mph - N/A   Partly Cloudy
6:56 PM 71.1 °F 46.9 °F 42% 30.18 in 10.0 mi South 12.7 mph - N/A   Partly Cloudy
7:56 PM 66.9 °F 48.9 °F 52% 30.19 in 10.0 mi SSW 8.1 mph - N/A   Clear
8:56 PM 64.0 °F 50.0 °F 60% 30.19 in 10.0 mi South 4.6 mph - N/A   Clear
9:56 PM 61.0 °F 51.1 °F 70% 30.20 in 10.0 mi SSW 5.8 mph - N/A   Clear
10:56 PM 60.1 °F 52.0 °F 75% 30.19 in 10.0 mi SSW 5.8 mph - N/A   Clear
11:56 PM 59.0 °F 51.1 °F 75% 30.18 in 10.0 mi SSW 5.8 mph - N/A   Clear